Kezdőlap
METAR-TAF:

METAR-TAF

Repülőterek :

Charles City, Iowa, Amerikai Egyesült Államok

földrajzi szélesség: 43-04N, földrajzi hosszúság: 092-37W, magasság: 343 m

Jelenlegi meteorológiai megfigyelések

A jelentés 32 perccel ezelõtt készült, 12:55 UTC
Észak-északnyugati szél 6 kt
Hőmérséklet -1°C
Páratartalom 80%
Légköri nyomás 1026 hPa
Látótávolság: 16.1 km
Szórványos felhőzet 7500 lábon
Borult 9500 lábon

METAR: KCCY 041255Z AUTO 33006KT 10SM SCT075 OVC095 M01/M04 A3031 RMK AO2

Idő: 07:27 (13:27 UTC)


TAF: hiányzik

Meteorológiai megfigyelések és előrejelzések több, mint 4000 repülőtéren (METAR és TAF jelentéseket).

A térképen piros és sárga pontok jelzik az elérhető meteorológiai állomásokat.

Mozgassa az egeret a pont fölött, hogy megjelenjen az állomás neve.

Azután kattintson az időjárási megfigyelések és előrejelzések megtekintéséhez.

A térkép megváltoztatása: kattintson a fekete keresztel jelölt zöld gombra ráközelítéshez, a vonallal jelölt zöld gombra távolításhoz, vagy a zöld nyilakra a szomszédos térképek eléréséhez.


METAR-TAF: